sat.trackr.live / text

‹ back to catalog

2024-105D

NORAD 59920 · 2024-105D

PAYLOAD ACTIVE UNKNOWN

§ Identity

Operator
Country
PRC
Launch date
2024-05-30
Launch site
JSC
Launch vehicle
Mass (kg)
RCS (m²)

External: N2YO · Heavens-Above · Gunter

§ Orbital elements

Epoch: 2026-05-25T05:16:11.293824Z

Period
94.59 min
Inclination
97.5832°
Eccentricity
0.0009996
Mean motion
15.22321147 rev/d
Perigee alt
492.0 km
Apogee alt
505.7 km
Semi-major
6,877.0 km
B*
2.3555e-4
RAAN
163.9508°
Arg perigee
304.6275°
Mean anomaly
55.4018°
Rev number
10,976

§ Raw data

2024-105D1 59920U 24105D   26145.21957516  .00005363  00000+0  23555-3 0  99902 59920  97.5832 163.9508 0009996 304.6275  55.4018 15.22321147109767

JSON: /api/v1/satellites/59920 · /tle

For live sub-satellite position, see the globe view (requires WebGL).

§ Visibility from observer

Set your observer location to see the next 7 days of passes ≥ 10°. The values pass through the URL so the page stays shareable.

No JS? Fill the form by hand. The geolocation button needs JavaScript.